When you browse on this site, cookies collect data to enhance your experience and personalize the content and advertising you see.
Visit our Privacy Policy to learn more. By continuing to use the site, you agree to this use of cookies and data.
  • En España
  • Lista de países
  • Para 7 días
  • Temperatura del agua
  • Mapa Satelital
  • El tiempo en el mapa
  • Informadores
  • user-avatar
    Iniciar sesión

    Tiempo cada hora Kurhan

    Hoy, 23 Mayo, Jueves

    Tiempo Temperatura Precipitaciones Viento Presión Humedad
    00:00 +13°C° 0 mm 3 mps 736 mmHg 96%
    01:00 +13°C° 0.2 mm 3 mps 736 mmHg 96%
    02:00 +12°C° 0.2 mm 3 mps 736 mmHg 96%
    03:00 +13°C° 0 mm 2 mps 735 mmHg 96%
    04:00 +13°C° 0.1 mm 2 mps 735 mmHg 95%
    05:00 +14°C° 0.1 mm 2 mps 735 mmHg 93%
    06:00 +14°C° 0.1 mm 2 mps 735 mmHg 92%
    07:00 +16°C° 0.1 mm 3 mps 735 mmHg 84%
    08:00 +17°C° 0.1 mm 4 mps 735 mmHg 76%
    09:00 +19°C° 0 mm 4 mps 735 mmHg 69%
    10:00 +20°C° 0.3 mm 4 mps 735 mmHg 65%
    11:00 +21°C° 0.3 mm 4 mps 735 mmHg 60%
    12:00 +22°C° 0.3 mm 4 mps 735 mmHg 56%
    13:00 +22°C° 0.6 mm 4 mps 735 mmHg 56%
    14:00 +22°C° 0.6 mm 4 mps 735 mmHg 57%
    15:00 +22°C° 0.6 mm 4 mps 735 mmHg 57%
    16:00 +21°C° 0.7 mm 4 mps 735 mmHg 62%
    17:00 +21°C° 0.7 mm 4 mps 735 mmHg 66%
    18:00 +20°C° 0.7 mm 4 mps 735 mmHg 70%
    19:00 +19°C° 0.2 mm 3 mps 735 mmHg 75%
    20:00 +17°C° 0.2 mm 3 mps 735 mmHg 80%
    21:00 +16°C° 0.2 mm 2 mps 735 mmHg 86%
    22:00 +16°C° 0 mm 2 mps 735 mmHg 87%
    23:00 +15°C° 0 mm 2 mps 735 mmHg 89%

    Mañana, 24 Mayo, Viernes

    Tiempo Temperatura Precipitaciones Viento Presión Humedad
    00:00 +15°C° 0 mm 2 mps 735 mmHg 90%
    01:00 +14°C° 0 mm 2 mps 735 mmHg 90%
    02:00 +14°C° 0 mm 2 mps 735 mmHg 90%
    03:00 +14°C° 0 mm 1 mps 735 mmHg 90%
    04:00 +15°C° 0 mm 1 mps 735 mmHg 89%
    05:00 +15°C° 0 mm 1 mps 735 mmHg 88%
    06:00 +16°C° 0 mm 1 mps 735 mmHg 87%
    07:00 +18°C° 0 mm 1 mps 736 mmHg 79%
    08:00 +20°C° 0 mm 1 mps 736 mmHg 71%
    09:00 +22°C° 0 mm 1 mps 736 mmHg 63%
    10:00 +23°C° 0 mm 1 mps 736 mmHg 58%
    11:00 +24°C° 0 mm 1 mps 737 mmHg 54%
    12:00 +25°C° 0 mm 1 mps 737 mmHg 49%
    13:00 +26°C° 0 mm 1 mps 737 mmHg 48%
    14:00 +26°C° 0 mm 1 mps 736 mmHg 47%
    15:00 +26°C° 0 mm 2 mps 736 mmHg 46%
    16:00 +26°C° 0.1 mm 2 mps 736 mmHg 51%
    17:00 +25°C° 0.1 mm 2 mps 736 mmHg 56%
    18:00 +24°C° 0.1 mm 3 mps 736 mmHg 62%
    19:00 +23°C° 0.3 mm 2 mps 736 mmHg 69%
    20:00 +20°C° 0.3 mm 2 mps 736 mmHg 75%
    21:00 +18°C° 0.3 mm 2 mps 736 mmHg 82%
    22:00 +18°C° 0.2 mm 2 mps 736 mmHg 82%
    23:00 +18°C° 0.2 mm 1 mps 736 mmHg 83%

    Pasado mañana, 25 Mayo, Sábado

    Tiempo Temperatura Precipitaciones Viento Presión Humedad
    00:00 +18°C° 0.2 mm 1 mps 736 mmHg 83%
    01:00 +18°C° 0 mm 1 mps 736 mmHg 82%
    02:00 +18°C° 0 mm 1 mps 736 mmHg 81%
    03:00 +16°C° 0 mm 2 mps 736 mmHg 81%
    04:00 +18°C° 0 mm 1 mps 736 mmHg 79%
    05:00 +18°C° 0 mm 1 mps 735 mmHg 78%
    06:00 +18°C° 0 mm 1 mps 735 mmHg 77%
    07:00 +19°C° 0.3 mm 2 mps 736 mmHg 73%
    08:00 +20°C° 0.3 mm 2 mps 736 mmHg 69%
    09:00 +22°C° 0.3 mm 3 mps 736 mmHg 65%
    10:00 +24°C° 1.9 mm 3 mps 736 mmHg 63%
    11:00 +24°C° 1.9 mm 3 mps 736 mmHg 61%
    12:00 +24°C° 1.9 mm 3 mps 735 mmHg 59%
    13:00 +25°C° 0.7 mm 3 mps 735 mmHg 59%
    14:00 +25°C° 0.7 mm 3 mps 735 mmHg 58%
    15:00 +26°C° 0.7 mm 3 mps 735 mmHg 57%
    16:00 +24°C° 1.3 mm 3 mps 734 mmHg 65%
    17:00 +23°C° 1.3 mm 2 mps 734 mmHg 73%
    18:00 +20°C° 1.3 mm 2 mps 733 mmHg 82%
    19:00 +19°C° 0.9 mm 3 mps 733 mmHg 85%
    20:00 +18°C° 0.9 mm 3 mps 733 mmHg 89%
    21:00 +17°C° 0.9 mm 4 mps 733 mmHg 93%
    22:00 +17°C° 1.3 mm 3 mps 733 mmHg 91%
    23:00 +17°C° 1.3 mm 3 mps 733 mmHg 90%

    26 Mayo, Domingo

    Tiempo Temperatura Precipitaciones Viento Presión Humedad
    00:00 +17°C° 1.3 mm 2 mps 733 mmHg 89%
    01:00 +17°C° 2 mm 3 mps 733 mmHg 88%
    02:00 +16°C° 2 mm 5 mps 733 mmHg 88%
    03:00 +16°C° 2 mm 6 mps 733 mmHg 87%
    04:00 +16°C° 1.9 mm 6 mps 733 mmHg 88%
    05:00 +16°C° 1.9 mm 6 mps 733 mmHg 88%
    06:00 +15°C° 1.9 mm 6 mps 733 mmHg 89%
    07:00 +16°C° 0.9 mm 5 mps 733 mmHg 86%
    08:00 +17°C° 0.9 mm 5 mps 734 mmHg 83%
    09:00 +19°C° 0.9 mm 5 mps 734 mmHg 80%
    10:00 +20°C° 1.3 mm 6 mps 734 mmHg 76%
    11:00 +21°C° 1.3 mm 6 mps 735 mmHg 72%
    12:00 +22°C° 1.3 mm 7 mps 735 mmHg 68%
    13:00 +22°C° 0.9 mm 7 mps 735 mmHg 68%
    14:00 +22°C° 0.9 mm 7 mps 735 mmHg 67%
    15:00 +23°C° 0.9 mm 7 mps 735 mmHg 67%
    16:00 +22°C° 0.5 mm 7 mps 735 mmHg 70%
    17:00 +22°C° 0.5 mm 6 mps 735 mmHg 73%
    18:00 +21°C° 0.5 mm 5 mps 735 mmHg 76%
    19:00 +20°C° 0.7 mm 5 mps 735 mmHg 79%
    20:00 +19°C° 0.7 mm 4 mps 736 mmHg 82%
    21:00 +18°C° 0.7 mm 4 mps 736 mmHg 86%
    22:00 +18°C° 0 mm 3 mps 736 mmHg 87%
    23:00 +17°C° 0 mm 3 mps 736 mmHg 89%

    27 Mayo, Lunes

    Tiempo Temperatura Precipitaciones Viento Presión Humedad
    00:00 +17°C° 0 mm 3 mps 737 mmHg 90%
    01:00 +16°C° 0 mm 3 mps 737 mmHg 91%
    02:00 +16°C° 0 mm 3 mps 737 mmHg 92%
    03:00 +16°C° 0 mm 3 mps 738 mmHg 93%
    04:00 +16°C° 0 mm 3 mps 738 mmHg 92%
    05:00 +16°C° 0 mm 3 mps 739 mmHg 91%
    06:00 +16°C° 0 mm 3 mps 739 mmHg 91%
    07:00 +18°C° 0 mm 3 mps 740 mmHg 83%
    08:00 +20°C° 0 mm 3 mps 740 mmHg 76%
    09:00 +21°C° 0 mm 3 mps 740 mmHg 68%
    10:00 +22°C° 0 mm 4 mps 741 mmHg 63%
    11:00 +23°C° 0 mm 4 mps 741 mmHg 58%
    12:00 +25°C° 0 mm 4 mps 741 mmHg 53%
    13:00 +25°C° 0 mm 4 mps 741 mmHg 53%
    14:00 +26°C° 0 mm 4 mps 741 mmHg 52%
    15:00 +26°C° 0 mm 4 mps 741 mmHg 51%
    16:00 +26°C° 0 mm 3 mps 742 mmHg 54%
    17:00 +26°C° 0 mm 3 mps 742 mmHg 57%
    18:00 +26°C° 0 mm 2 mps 742 mmHg 60%
    19:00 +24°C° 0 mm 2 mps 742 mmHg 63%
    20:00 +22°C° 0 mm 1 mps 742 mmHg 67%
    21:00 +18°C° 0 mm 0 mps 742 mmHg 70%
    22:00 +20°C° 0 mm 1 mps 742 mmHg 72%
    23:00 +19°C° 0 mm 1 mps 743 mmHg 73%

    28 Mayo, Martes

    Tiempo Temperatura Precipitaciones Viento Presión Humedad
    00:00 +19°C° 0 mm 1 mps 743 mmHg 75%
    01:00 +19°C° 0 mm 1 mps 743 mmHg 77%
    02:00 +18°C° 0 mm 1 mps 743 mmHg 79%
    03:00 +18°C° 0 mm 1 mps 743 mmHg 81%
    04:00 +19°C° 0 mm 1 mps 743 mmHg 80%
    05:00 +19°C° 0 mm 1 mps 743 mmHg 79%
    06:00 +20°C° 0 mm 1 mps 744 mmHg 79%
    07:00 +22°C° 0 mm 1 mps 744 mmHg 73%
    08:00 +23°C° 0 mm 2 mps 744 mmHg 67%
    09:00 +25°C° 0 mm 2 mps 744 mmHg 61%
    10:00 +26°C° 0 mm 3 mps 744 mmHg 58%
    11:00 +27°C° 0 mm 3 mps 744 mmHg 55%
    12:00 +28°C° 0 mm 3 mps 744 mmHg 52%
    13:00 +28°C° 0 mm 4 mps 744 mmHg 52%
    14:00 +28°C° 0 mm 4 mps 744 mmHg 51%
    15:00 +28°C° 0 mm 4 mps 743 mmHg 51%
    16:00 +28°C° 0 mm 3 mps 743 mmHg 55%
    17:00 +28°C° 0 mm 3 mps 743 mmHg 58%
    18:00 +28°C° 0 mm 3 mps 743 mmHg 62%
    19:00 +26°C° 0 mm 3 mps 743 mmHg 66%
    20:00 +24°C° 0 mm 3 mps 743 mmHg 70%
    21:00 +21°C° 0 mm 3 mps 743 mmHg 74%
    22:00 +20°C° 0 mm 3 mps 743 mmHg 75%
    23:00 +20°C° 0 mm 3 mps 743 mmHg 76%
    Mostrar más